Regional Weather Roundup
Issued by NWS

Home | Current Version | Previous Version | Graphics & Text | Print | Product List | Glossary Off
Versions: 1 2 3 4 5 6 7 8 9 10 11 12 13 14 15 16 17 18 19 20 21 22 23 24 25 26 27 28 29 30 31 32 33 34 35 36 37 38 39 40 41 42 43 44 45 46 47 48 49 50

000
ASUS43 KTOP 042008
RWRKS

WEATHER ROUNDUP FOR KANSAS
NATIONAL WEATHER SERVICE GOODLAND KS
200 PM CST SUN DEC 04 2016

NOTE:  "FAIR" INDICATES FEW OR NO CLOUDS BELOW 12,000 FEET WITH NO
SIGNIFICANT WEATHER AND/OR OBSTRUCTIONS TO VISIBILITY.

KSZ001>006-013>018-027>032-041>047-042100-
NORTHWEST KANSAS

CITY           SKY/WX    TMP DP  RH WIND       PRES   REMARKS
GOODLAND       SUNNY     48   9  20 SW9       29.93F
HAYS           SUNNY     49  29  46 NW9       29.97F
HILL CITY      SUNNY     52  20  28 W9        29.96F
RUSSELL        SUNNY     48  28  46 W8        29.96F
$$

KSZ061>065-074>080-084>089-042100-
SOUTHWEST KANSAS

CITY           SKY/WX    TMP DP  RH WIND       PRES   REMARKS
DODGE CITY     SUNNY     50  25  37 W9        30.00F
ELKHART          N/A     48  20  33 W6          N/A
GARDEN CITY    SUNNY     49  19  30 NW8       29.98F
GREAT BEND     SUNNY     49  30  48 NW9       29.98F
LIBERAL        SUNNY     48  27  43 W7        30.05F
PRATT          SUNNY     48  29  47 W8        30.00F
$$

KSZ066>073-081>083-090>101-042100-
SOUTHEAST KANSAS

CITY           SKY/WX    TMP DP  RH WIND       PRES   REMARKS
CHANUTE        PTSUNNY   48  37  65 W10       30.01F
COFFEYVILLE    PTSUNNY   49  40  71 W7        30.03S
HUTCHINSON     SUNNY     50  34  54 W10       30.00F
MEDICINE LODGE   N/A     55  26  32 W10       30.01F
NEWTON         SUNNY     47  37  68 W8        30.00F
PARSONS        CLOUDY    47  38  71 W5        30.03F
WICHITA INTL   MOSUNNY   50  37  61 W6        30.01F
WICHITA JABRA  SUNNY     48  38  68 W7        30.01F
WICHITA MCCONL SUNNY     48  37  64 W6        30.01F
WINFIELD       MOSUNNY   46  39  76 NW9       30.04F
$$

KSZ007>012-019>026-033>040-048>060-102>105-042100-
NORTHEAST KANSAS

CITY           SKY/WX    TMP DP  RH WIND       PRES   REMARKS
CONCORDIA      SUNNY     45  34  65 W9        29.95F
EMPORIA        CLOUDY    40  36  86 W7        30.00S
LAWRENCE       CLOUDY    41  37  86 W12       29.99S
MANHATTAN      MOSUNNY   41  35  79 SW5       29.98F
MARYSVILLE     MOSUNNY   43  36  75 W7        29.95F
OLATHE IND     CLOUDY    43  38  82 W8        29.98S
OLATHE EXE     CLOUDY    42  36  79 W6        29.97S
SALINA         SUNNY     50  33  52 W8        29.99F
TOPEKA BILLARD CLOUDY    38  35  89 W7        29.99S
TOPEKA FORBES  CLOUDY    39  36  89 NW8       29.99S
$$




USA.gov is the U.S. government's official web portal to all federal, state and local government web resources and services.